Temp
77 79 79 79 79 79 79 77 76 76 75 76 77 76 76 75 76 77 76 79 78 77 78 78 79 78 78 77 76 76 75 75 75 75 75 75 75 75 76 76 76 75 75
75 76 76 77 77 76 75 74 74 72 72 74 73 73 73 73 74 74 75 74 77 77 77 78 78 77 77 77 76 75 74 74 73 74 74 75 75 75 75 75 76 76 74
75 74 75 75 74 72 73 72 71 71 70 71 69 71 71 73 73 71 72 74 75 76 76 76 74 74 73 73 73 73 73 72 71 72 73 73 74 74 75 75 75 76 76
76 72 73 73 71 70 70 69 69 68 67 67 67 68 68 68 69 70 72 73 72 73 72 73 73 73 72 73 73 73 73 71 72 72 72 72 73 73 74 74 74 75 75
76 70 71 71 69 69 68 68 66 64 62 62 64 65 64 65 66 71 69 71 69 69 68 71 72 72 72 72 72 72 72 71 71 71 72 71 71 72 73 73 74 73 74
73 69 69 67 66 66 66 65 62 62 60 60 64 62 62 63 65 66 65 67 66 68 68 66 64 68 71 70 71 71 71 71 71 71 71 71 71 71 71 71 72 72 73
69 68 67 67 66 64 62 62 60 58 58 60 58 58 58 61 61 61 61 62 64 65 65 65 65 66 65 69 68 68 69 70 70 70 68 69 70 71 71 71 71 71 72
69 69 66 65 64 63 63 60 59 57 58 59 54 54 50 54 58 57 58 60 61 61 63 64 64 63 64 64 65 67 68 69 69 70 69 69 69 69 70 71 71 71 71
68 68 67 65 64 63 61 60 60 58 55 57 57 52 48 46 49 56 55 59 57 60 60 62 62 64 63 63 65 64 67 68 68 69 69 68 68 69 69 69 70 70 70
69 70 68 66 64 63 61 60 62 59 56 54 56 59 56 52 46 44 53 55 57 57 57 58 61 63 62 63 66 67 66 67 67 67 68 68 68 68 68 68 68 69 70
68 70 67 66 63 62 61 61 59 59 58 56 55 55 54 53 52 46 44 49 53 56 57 58 59 63 62 63 62 63 65 65 65 65 65 66 67 68 68 68 69 69 69
67 67 67 64 64 62 61 60 59 58 57 58 57 54 53 50 49 48 46 48 48 52 57 57 59 63 60 59 63 63 62 62 62 62 62 63 64 66 66 67 67 68 70
65 63 64 63 62 61 60 60 60 59 58 57 55 55 57 54 53 51 50 48 48 52 54 57 60 60 60 59 59 61 61 61 60 60 60 61 62 63 64 66 66 67 68
63 62 62 62 61 62 62 60 60 59 59 57 57 56 55 56 54 54 51 48 47 49 53 54 58 60 60 60 60 61 59 59 59 59 59 59 60 61 62 63 64 65 65
62 62 62 61 62 62 62 60 60 59 58 58 57 57 55 55 56 56 53 52 48 44 46 52 53 57 59 59 59 59 58 59 60 59 59 59 59 60 60 61 62 63 63
61 61 61 61 61 61 62 60 59 59 57 57 58 57 56 56 56 57 53 52 49 47 45 52 55 57 59 58 59 56 56 60 59 59 59 59 59 59 60 60 60 61 61
61 60 61 61 62 62 62 60 59 58 56 56 57 57 56 56 55 56 56 53 49 48 46 50 56 58 56 56 55 54 56 56 56 58 59 58 57 57 59 59 59 60 61
61 61 61 61 62 62 59 58 56 56 55 54 56 55 55 57 54 55 54 52 49 49 47 47 52 54 55 56 54 52 53 55 56 59 58 58 57 56 56 55 56 58 58
60 60 60 60 61 60 56 56 55 54 53 54 55 54 54 54 52 53 52 51 52 52 50 49 50 56 55 53 52 52 52 53 56 59 58 58 57 57 56 55 55 54 53
60 60 60 61 60 58 55 54 53 52 52 54 54 54 54 54 52 52 52 51 51 50 52 51 51 52 54 56 52 48 48 51 52 56 57 56 57 57 56 55 55 55 52
61 61 60 60 58 57 56 51 51 51 51 53 54 55 55 56 57 54 51 48 48 49 49 50 49 50 51 51 49 49 48 49 51 53 53 54 55 56 55 53 54 53 53
60 59 59 59 56 58 50 50 50 50 52 53 52 53 54 55 54 54 53 53 52 50 48 48 47 46 48 50 51 50 48 46 46 54 52 54 57 56 54 52 52 51 50
60 59 59 59 56 57 49 48 49 50 52 52 52 52 52 54 50 49 50 51 52 53 53 48 46 47 48 50 50 49 49 47 46 51 52 50 55 54 56 53 50 50 50
59 58 58 59 55 58 49 47 47 50 53 52 51 51 49 49 48 47 47 49 49 50 50 51 50 50 50 52 50 51 50 48 49 51 50 48 51 51 55 54 50 50 49
58 58 59 58 57 57 48 47 47 51 53 51 52 51 51 50 47 45 45 46 47 48 52 51 50 49 49 49 51 50 48 45 45 48 48 49 50 49 51 53 53 50 49
58 60 59 59 58 57 46 46 46 52 49 49 49 50 51 48 45 43 44 45 44 44 46 48 48 51 53 51 50 50 48 44 44 45 48 47 49 49 46 50 52 54 54
MSLP
1017.10 1017.14 1017.07 1016.97 1016.84 1016.73 1016.75 1016.95 1016.96 1016.65 1016.61 1016.30 1016.06 1015.69 1015.37 1015.22 1014.83 1014.49 1014.09 1013.72 1013.57 1013.53 1013.39 1013.14 1012.89 1012.75 1012.58 1012.56 1012.62 1012.58 1012.58 1012.60 1012.66 1012.61 1012.44 1012.39 1012.38 1012.51 1012.70 1012.81 1012.89 1013.12 1013.15
1017.48 1017.44 1017.25 1017.07 1017.00 1017.16 1017.28 1017.32 1016.98 1016.73 1016.63 1016.31 1016.14 1015.83 1015.47 1015.10 1014.72 1014.28 1013.75 1013.64 1013.54 1013.39 1012.98 1012.66 1012.38 1012.31 1012.18 1012.11 1012.04 1012.07 1012.09 1012.06 1012.04 1011.96 1011.87 1011.73 1011.79 1011.86 1012.00 1012.23 1012.28 1012.29 1012.60
1017.90 1018.10 1017.62 1017.38 1017.52 1017.88 1017.81 1017.64 1017.20 1016.90 1016.60 1016.48 1016.50 1015.81 1015.40 1014.81 1014.49 1014.19 1013.91 1013.61 1013.11 1012.88 1012.84 1012.61 1012.63 1012.60 1012.53 1012.31 1012.09 1012.06 1011.89 1011.76 1011.65 1011.46 1011.26 1011.11 1011.06 1011.10 1011.24 1011.38 1011.49 1011.62 1011.74
1017.74 1018.26 1018.07 1017.84 1017.87 1017.82 1017.79 1017.80 1017.56 1017.69 1017.12 1016.88 1016.77 1016.18 1015.64 1015.31 1014.82 1014.36 1013.83 1013.49 1013.07 1012.97 1013.01 1012.85 1012.64 1012.42 1012.25 1012.02 1011.61 1011.43 1011.17 1011.21 1010.91 1010.75 1010.65 1010.53 1010.40 1010.43 1010.56 1010.73 1010.80 1011.02 1011.11
1018.17 1018.61 1018.27 1018.22 1018.19 1018.04 1017.86 1018.05 1018.22 1018.18 1017.95 1017.48 1017.18 1016.48 1016.12 1015.61 1015.13 1014.56 1014.08 1013.53 1013.54 1013.16 1013.02 1012.74 1012.56 1012.19 1011.82 1011.50 1011.18 1010.92 1010.82 1010.55 1010.25 1010.14 1010.04 1010.02 1009.89 1009.86 1009.86 1009.91 1010.04 1010.26 1010.41
1018.66 1018.82 1018.73 1018.63 1018.65 1018.37 1018.45 1018.54 1018.76 1018.72 1018.59 1018.10 1017.46 1017.14 1016.48 1015.91 1015.40 1015.11 1014.71 1014.12 1013.67 1013.10 1012.94 1012.61 1012.27 1011.98 1011.47 1011.25 1010.98 1010.68 1010.37 1010.04 1009.79 1009.51 1009.45 1009.37 1009.36 1009.35 1009.31 1009.42 1009.49 1009.61 1009.76
1019.25 1019.07 1019.08 1018.88 1018.73 1018.82 1018.86 1018.90 1019.27 1019.07 1018.78 1018.29 1017.52 1017.34 1016.60 1015.86 1015.57 1015.41 1014.94 1014.30 1013.81 1013.38 1013.15 1012.60 1012.17 1011.85 1011.42 1011.08 1010.81 1010.56 1010.15 1009.80 1009.45 1009.16 1009.15 1008.88 1008.80 1008.80 1008.79 1008.65 1008.89 1009.00 1009.06
1019.10 1019.16 1019.21 1019.00 1019.13 1019.21 1018.99 1019.24 1019.37 1019.18 1018.84 1018.47 1018.11 1017.50 1016.63 1016.40 1015.89 1015.95 1015.21 1014.86 1014.38 1014.04 1013.29 1012.63 1012.08 1011.62 1011.21 1010.78 1010.47 1010.16 1009.78 1009.41 1009.02 1008.61 1008.48 1008.35 1008.23 1008.10 1008.11 1008.20 1008.29 1008.39 1008.48
1019.23 1018.99 1019.02 1019.02 1019.03 1019.00 1019.09 1019.17 1019.06 1019.01 1018.86 1018.64 1018.37 1018.19 1017.43 1016.94 1016.46 1015.53 1015.50 1015.08 1014.92 1014.22 1013.62 1012.65 1011.85 1011.19 1010.68 1010.30 1009.95 1009.67 1009.32 1008.95 1008.63 1008.12 1007.88 1007.68 1007.55 1007.34 1007.36 1007.45 1007.53 1007.61 1007.74
1018.77 1018.72 1018.82 1018.80 1018.96 1019.07 1019.07 1019.02 1018.77 1018.78 1018.75 1018.57 1018.30 1017.95 1017.98 1017.75 1017.18 1015.99 1015.53 1015.17 1014.70 1014.38 1013.64 1012.62 1011.66 1010.77 1010.17 1009.75 1009.44 1009.09 1008.78 1008.46 1008.25 1007.88 1007.46 1007.21 1006.98 1006.75 1006.75 1006.83 1006.87 1006.84 1006.90
1018.35 1018.24 1018.64 1018.80 1018.86 1018.94 1019.00 1018.79 1018.69 1018.54 1018.44 1018.32 1018.09 1017.81 1017.65 1017.43 1017.49 1017.10 1015.59 1014.84 1014.51 1014.09 1013.39 1012.46 1011.42 1010.37 1009.43 1009.12 1009.02 1008.84 1008.52 1008.17 1007.85 1007.48 1007.07 1006.65 1006.41 1006.15 1006.01 1005.98 1005.99 1005.93 1006.07
1018.13 1018.14 1018.58 1018.80 1018.82 1018.83 1018.75 1018.54 1018.51 1018.37 1018.09 1017.87 1017.61 1017.55 1017.33 1017.23 1016.98 1016.61 1015.88 1015.04 1014.38 1013.48 1012.88 1012.18 1011.13 1010.10 1009.46 1009.31 1009.05 1008.66 1008.22 1007.84 1007.39 1007.02 1006.76 1006.41 1005.99 1005.69 1005.51 1005.52 1005.43 1005.31 1005.24
1018.44 1018.55 1018.51 1018.65 1018.70 1018.56 1018.42 1018.18 1018.15 1017.91 1017.85 1017.64 1017.39 1017.08 1016.67 1016.54 1016.33 1016.16 1015.64 1014.91 1013.98 1013.20 1012.33 1011.84 1011.00 1010.27 1009.54 1009.18 1008.83 1008.29 1007.62 1007.14 1006.73 1006.29 1005.98 1005.60 1005.23 1004.94 1004.81 1004.67 1004.62 1004.56 1004.57
1019.05 1018.90 1018.81 1018.56 1018.46 1018.16 1017.99 1017.87 1017.79 1017.58 1017.30 1017.22 1017.01 1016.64 1016.26 1015.94 1015.73 1015.47 1015.32 1014.87 1013.67 1013.10 1012.27 1011.63 1010.95 1010.13 1009.52 1008.97 1008.47 1007.70 1007.08 1006.55 1006.02 1005.53 1005.13 1004.71 1004.33 1004.00 1003.78 1003.60 1003.53 1003.62 1003.73
1019.33 1019.10 1018.83 1018.51 1018.13 1017.93 1017.66 1017.75 1017.59 1017.44 1017.12 1016.81 1016.51 1016.15 1015.81 1015.50 1015.20 1015.01 1014.96 1014.85 1014.44 1013.21 1012.16 1011.56 1011.04 1009.91 1009.29 1008.64 1008.08 1007.22 1006.47 1005.85 1005.24 1004.61 1004.06 1003.51 1003.05 1002.64 1002.43 1002.43 1002.47 1002.64 1002.86
1019.37 1019.11 1018.69 1018.34 1018.06 1017.65 1017.30 1017.33 1017.34 1017.04 1016.83 1016.62 1016.18 1015.87 1015.46 1015.20 1014.98 1014.68 1014.48 1014.48 1014.52 1014.13 1012.49 1011.58 1010.61 1009.80 1008.96 1008.39 1007.90 1007.23 1006.28 1005.51 1004.85 1004.13 1003.40 1002.48 1001.73 1001.22 1000.88 1001.04 1001.29 1001.54 1001.84
1019.31 1018.98 1018.58 1018.17 1017.84 1017.36 1017.26 1017.20 1017.04 1016.88 1016.86 1016.41 1015.93 1015.51 1015.34 1015.12 1014.90 1014.53 1014.21 1014.09 1014.12 1013.80 1012.76 1011.44 1010.46 1009.44 1008.73 1008.19 1007.72 1007.10 1006.36 1005.43 1004.59 1003.75 1002.99 1002.03 1001.22 1000.39 999.94 999.97 1000.20 1000.46 1000.75
1019.28 1019.04 1018.64 1018.31 1017.95 1017.53 1017.42 1017.49 1017.51 1017.46 1017.16 1016.63 1016.02 1015.48 1015.31 1014.89 1014.63 1014.39 1014.08 1013.76 1013.57 1013.35 1012.90 1011.51 1010.41 1009.39 1008.61 1008.06 1007.74 1007.33 1006.49 1005.54 1004.62 1003.73 1002.87 1002.14 1001.39 1000.88 1000.29 999.87 999.71 999.57 999.59
1019.36 1019.02 1018.65 1018.32 1017.99 1017.70 1018.06 1018.21 1018.16 1017.82 1017.44 1016.81 1016.06 1015.52 1015.17 1014.74 1014.55 1014.20 1013.93 1013.68 1013.36 1012.83 1012.36 1011.64 1010.33 1009.31 1008.51 1008.01 1007.62 1007.36 1006.55 1005.56 1004.45 1003.79 1003.01 1002.19 1001.68 1001.26 1000.77 1000.01 999.51 999.24 999.01
1019.15 1018.91 1018.61 1018.27 1018.17 1018.34 1018.63 1018.70 1018.47 1018.00 1017.40 1016.63 1016.04 1015.48 1015.00 1014.62 1014.33 1014.14 1013.98 1013.73 1013.40 1012.81 1012.03 1011.20 1010.25 1009.17 1008.58 1008.06 1007.78 1007.54 1006.24 1005.62 1004.71 1003.87 1003.18 1002.63 1001.89 1001.37 1000.76 1000.24 999.68 999.15 998.58
1018.96 1018.78 1018.50 1018.23 1018.34 1018.49 1018.82 1018.78 1018.50 1018.00 1017.34 1016.57 1015.96 1015.44 1015.01 1014.59 1014.20 1014.12 1014.01 1013.80 1013.38 1012.73 1011.98 1011.11 1010.32 1009.42 1008.93 1008.42 1007.97 1007.78 1007.27 1006.24 1004.90 1004.35 1003.46 1002.85 1002.38 1001.87 1001.59 1000.91 1000.32 999.63 998.71
1018.72 1018.59 1018.32 1018.10 1018.28 1018.36 1018.50 1018.51 1018.45 1017.90 1017.10 1016.46 1015.86 1015.41 1015.02 1014.45 1014.17 1013.98 1013.82 1013.47 1013.03 1012.34 1011.71 1011.03 1010.42 1009.96 1009.24 1008.73 1008.17 1007.89 1007.47 1006.68 1005.61 1004.49 1004.29 1003.59 1002.93 1002.55 1002.34 1001.86 1001.26 1000.40 999.78
1018.34 1018.26 1018.04 1017.77 1017.85 1017.71 1017.76 1017.88 1017.82 1017.60 1016.74 1016.27 1015.83 1015.31 1014.90 1014.53 1014.40 1014.23 1013.82 1013.20 1012.59 1012.02 1011.61 1011.17 1010.54 1010.07 1009.42 1008.84 1008.39 1007.84 1007.40 1007.10 1006.30 1005.22 1004.81 1004.27 1003.63 1003.43 1003.27 1002.94 1002.32 1001.63 1001.04
1018.14 1018.00 1017.69 1017.37 1017.33 1016.99 1017.10 1017.37 1017.41 1017.10 1016.33 1015.96 1015.60 1015.19 1014.78 1014.47 1014.33 1014.21 1013.81 1012.96 1012.34 1011.80 1011.38 1011.04 1010.55 1009.96 1009.47 1008.71 1008.31 1007.89 1007.45 1007.01 1005.94 1005.33 1005.10 1004.96 1004.54 1004.41 1004.03 1003.83 1003.50 1003.01 1002.37
1017.90 1017.61 1017.21 1016.88 1016.62 1016.34 1016.72 1017.12 1017.27 1016.85 1016.10 1015.81 1015.49 1015.10 1014.55 1014.20 1013.91 1014.07 1013.72 1012.85 1012.14 1011.52 1010.99 1010.56 1010.05 1009.55 1008.90 1008.17 1007.79 1007.98 1007.53 1007.22 1006.35 1005.71 1005.66 1005.37 1005.18 1005.00 1004.90 1004.72 1004.55 1004.32 1003.82
1017.55 1016.99 1016.67 1016.30 1015.77 1015.95 1016.81 1017.18 1017.33 1016.89 1016.37 1015.91 1015.44 1014.87 1014.44 1014.19 1014.05 1013.99 1013.40 1012.66 1011.99 1011.62 1011.18 1010.46 1009.95 1009.16 1008.59 1007.99 1007.51 1007.52 1007.53 1007.48 1007.02 1006.19 1005.99 1005.77 1005.45 1005.20 1005.35 1005.29 1005.17 1004.94 1004.65
Wind_Speed
4 3 3 4 4 4 5 6 7 6 8 9 10 10 10 11 12 8 7 17 17 20 22 23 23 23 22 21 20 19 20 20 22 24 24 22 20 18 18 17 17 20 24
3 4 4 3 3 5 6 6 6 5 6 7 8 10 11 10 11 11 8 8 18 20 21 22 19 19 20 20 20 21 20 20 22 22 23 23 22 21 19 21 22 19 20
3 4 4 4 5 6 7 6 6 6 5 8 10 9 10 10 9 10 10 10 11 13 18 18 18 19 17 16 16 18 20 20 21 23 22 23 21 23 23 22 20 21 20
5 5 5 4 5 4 5 5 5 7 7 7 9 9 8 10 12 12 10 10 6 7 10 16 18 17 17 20 21 21 22 21 22 22 22 22 22 20 20 20 20 21 19
6 5 4 4 5 4 4 7 7 6 8 8 9 8 10 9 10 10 12 10 9 8 4 12 17 19 19 21 22 21 22 24 22 21 22 21 22 23 21 20 21 19 18
7 5 6 5 5 5 5 6 7 7 7 8 8 9 8 10 8 8 10 10 10 9 10 8 6 9 19 19 21 22 22 22 24 22 21 21 21 20 20 20 18 17 18
6 5 3 4 5 6 6 6 5 7 7 8 6 6 8 9 9 10 11 8 11 10 12 10 7 6 8 21 21 22 22 23 24 23 21 23 22 23 23 20 20 18 17
4 4 4 3 5 4 5 5 4 5 6 7 5 6 4 4 6 11 7 10 10 12 11 12 12 11 9 8 12 20 22 22 24 25 24 23 24 23 22 23 23 23 20
3 2 3 4 4 3 3 4 3 4 4 5 6 3 4 4 9 2 9 6 12 9 12 13 13 12 9 8 11 13 19 18 21 23 24 23 22 22 23 23 23 23 24
3 3 2 3 3 4 4 4 4 3 2 5 4 3 4 4 3 6 3 9 8 11 12 11 10 12 8 6 12 17 19 18 21 22 23 21 20 19 18 19 21 22 24
6 4 4 4 3 3 5 6 6 5 4 3 5 5 4 4 5 5 9 8 9 9 9 11 12 11 9 6 4 9 19 15 18 21 22 24 23 22 22 23 22 22 24
4 6 4 4 3 3 5 4 5 7 5 4 4 4 4 3 4 5 4 10 12 8 9 10 11 9 4 4 10 22 22 24 25 24 25 26 24 24 23 24 24 25 26
3 5 4 4 3 4 5 5 5 4 5 6 6 5 5 4 4 6 5 9 6 8 4 7 9 10 4 5 10 22 22 23 23 21 22 22 23 25 27 27 26 25 26
6 7 6 5 6 7 4 6 5 5 5 4 8 7 6 4 5 4 5 8 9 6 7 11 8 8 8 8 16 24 12 21 23 23 22 23 24 25 26 26 26 26 25
6 7 7 7 6 6 4 6 5 7 6 7 8 8 5 6 6 4 4 5 7 9 8 4 7 8 10 8 13 13 12 17 22 21 20 19 20 24 26 25 24 23 25
6 7 7 6 6 6 6 4 6 7 8 6 6 9 7 5 6 5 2 3 3 8 8 9 10 12 11 6 12 13 13 18 18 19 21 20 19 20 23 24 24 26 26
7 6 7 7 7 6 5 5 7 7 10 10 10 7 8 4 5 6 5 5 4 5 10 11 10 11 11 6 10 11 12 10 9 19 21 18 13 11 11 18 21 21 23
7 8 9 9 9 9 8 10 10 11 12 13 12 10 10 6 6 6 6 8 3 7 8 14 11 9 9 3 8 11 11 10 8 14 18 18 14 13 10 6 7 13 18
7 7 6 7 8 8 12 12 12 12 12 14 13 9 10 7 6 6 7 7 9 6 8 9 11 10 6 2 7 9 11 11 7 14 15 15 12 12 12 12 9 7 8
5 6 7 7 9 8 10 10 12 12 12 12 11 10 9 5 7 7 7 9 9 11 11 9 10 8 5 8 3 9 13 10 11 6 8 10 12 13 18 17 16 12 6
5 7 7 6 8 8 8 7 9 11 12 11 10 9 9 14 12 7 5 8 10 9 10 9 10 7 7 8 6 5 8 9 10 3 5 4 4 7 11 15 15 17 15
4 6 7 5 4 3 4 7 10 10 10 11 10 10 10 14 7 10 14 19 16 11 10 9 6 9 7 8 6 7 7 8 6 4 6 6 5 7 9 9 20 19 20
4 6 7 6 1 4 9 7 8 9 8 8 10 10 10 7 6 6 12 16 15 18 18 6 7 9 10 9 8 9 7 7 6 5 4 4 5 7 7 9 20 19 19
5 6 8 7 4 7 10 6 6 9 7 7 8 9 9 8 1 7 9 12 12 9 11 9 10 10 11 11 7 7 5 7 8 1 4 2 3 6 6 7 18 19 20
5 7 6 8 7 8 10 4 4 9 10 10 10 13 10 9 4 11 11 12 11 10 9 16 17 17 19 16 11 5 4 5 4 2 4 2 2 2 4 6 7 14 15
7 5 7 9 11 6 7 4 5 8 10 9 12 12 14 8 7 13 10 10 10 10 11 12 12 13 10 9 5 4 0 3 3 3 3 3 1 1 2 3 3 3 5
Wind_Direction
38 341 349 301 348 343 4 353 327 322 324 312 316 307 317 315 308 297 292 300 318 323 313 308 303 297 294 292 290 286 282 276 271 277 276 266 252 251 254 253 252 243 224
40 306 311 355 324 19 1 320 313 309 316 308 326 328 313 308 305 300 303 312 307 299 292 291 305 309 303 297 293 289 293 291 283 272 273 270 263 257 252 258 251 245 235
36 347 318 330 30 5 332 317 326 315 335 336 315 314 308 303 315 319 320 301 285 308 338 336 334 325 326 320 313 299 293 288 289 285 278 266 265 257 254 252 249 245 241
92 345 339 359 24 342 314 329 332 344 335 334 323 313 339 329 317 314 313 330 323 338 3 338 324 316 305 299 296 294 291 282 285 280 280 277 267 255 253 253 249 246 252
30 6 331 10 4 320 351 356 349 345 331 331 319 332 325 313 325 318 305 332 353 331 319 314 323 313 307 307 307 297 294 292 285 275 276 280 276 263 255 251 245 246 244
12 8 343 8 350 6 349 351 358 354 330 324 314 310 315 313 305 332 351 332 326 331 321 317 310 296 304 307 301 298 295 289 284 282 278 276 275 270 260 256 255 252 246
3 344 356 345 6 9 331 25 358 335 317 311 316 322 301 295 320 347 336 325 330 331 327 315 319 321 307 301 301 298 294 292 291 290 287 276 272 271 269 263 259 255 250
319 351 344 328 29 337 353 12 326 312 307 348 325 299 325 309 11 315 306 321 348 326 312 312 310 303 298 296 286 291 287 285 289 288 286 283 272 266 262 263 261 259 256
345 263 3 25 346 324 3 306 296 321 319 315 349 312 325 319 323 319 316 322 319 325 313 306 304 295 286 280 294 284 287 290 284 286 290 290 283 269 261 260 260 257 256
268 301 28 1 31 345 339 317 315 322 301 299 305 275 291 284 330 318 279 308 299 316 313 303 301 293 278 272 286 291 289 291 297 294 291 292 290 278 271 270 266 264 259
222 214 58 338 35 336 316 320 328 310 264 266 293 306 275 273 272 265 304 309 306 309 300 312 300 289 278 264 288 311 310 291 301 298 295 287 282 277 276 274 270 268 261
1 70 31 326 15 321 313 317 311 309 314 304 296 270 258 259 262 269 281 308 305 306 310 303 313 316 354 352 327 321 301 293 294 291 288 280 278 274 269 266 264 262 262
338 37 357 347 323 288 287 300 303 294 312 300 289 271 280 265 282 269 274 309 300 305 295 301 314 310 320 310 312 310 302 300 296 290 288 283 275 268 265 263 260 260 261
340 338 356 309 302 296 291 293 304 320 290 288 297 295 287 282 272 273 307 313 310 322 309 316 304 307 324 317 311 314 300 292 289 288 282 276 272 268 265 262 256 256 258
336 340 315 306 305 304 323 315 309 306 307 309 312 300 308 302 305 318 315 331 319 320 317 298 314 302 305 311 314 318 304 293 296 295 292 285 274 263 253 250 249 247 251
325 315 312 306 295 286 276 279 292 297 296 297 297 300 315 318 328 324 331 309 330 314 302 308 305 303 311 320 332 328 313 313 308 310 306 298 282 266 249 239 239 245 246
325 316 307 309 305 311 348 331 318 347 340 326 307 305 319 330 314 308 324 308 321 323 304 312 303 308 302 337 336 333 324 308 302 305 327 340 338 334 264 237 233 235 239
337 339 342 333 332 354 338 17 6 352 338 326 322 336 317 300 313 331 318 322 303 304 305 310 310 309 300 353 351 333 326 318 303 320 330 338 357 6 6 350 275 246 236
337 330 328 332 338 343 38 12 355 342 329 316 316 327 314 327 321 312 329 327 321 302 302 306 305 302 320 359 350 334 332 320 314 328 343 337 343 3 9 21 8 334 268
314 333 335 337 15 43 38 5 344 335 324 313 316 313 304 312 312 341 338 332 330 319 312 306 309 312 339 330 12 340 336 339 324 327 333 344 15 351 14 17 18 9 356
330 332 331 334 48 6 15 340 330 324 314 317 321 334 338 328 332 347 346 337 324 313 305 306 305 319 331 338 343 332 323 327 318 343 327 325 351 22 6 12 14 25 35
332 314 317 354 47 11 249 300 321 312 321 325 334 331 327 319 347 351 353 338 321 316 317 310 316 319 321 325 333 335 327 342 330 18 335 351 10 32 16 12 14 28 44
300 304 304 306 164 272 204 248 300 304 311 323 326 330 326 346 11 342 336 323 315 327 330 326 314 323 325 324 323 318 323 320 295 316 322 343 357 41 32 18 18 28 50
323 309 298 297 229 271 194 215 291 294 310 317 311 317 321 318 353 345 325 321 320 320 321 327 321 315 312 305 294 303 319 305 294 256 348 351 338 32 39 32 27 35 47
302 290 305 300 261 276 179 181 304 310 323 334 331 325 309 302 316 353 324 315 309 310 311 330 321 311 303 283 268 301 323 326 321 10 11 327 357 39 11 42 47 47 41
287 290 287 283 278 317 137 206 296 328 333 328 318 314 318 337 326 321 317 314 306 317 326 324 317 318 328 321 294 232 346 311 318 302 25 346 128 95 41 360 353 36 48